sat.trackr.live / text

‹ back to catalog

STARLINK-33769

NORAD 63773 · 2025-089X

PAYLOAD ACTIVE UNKNOWN

§ Identity

Operator
Country
US
Launch date
2025-04-29
Launch site
AFETR
Launch vehicle
Mass (kg)
RCS (m²)

Purposes: comms

External: N2YO · Heavens-Above · Gunter

§ Orbital elements

Epoch: 2026-05-24T22:47:26.998656Z

Period
94.27 min
Inclination
43.0018°
Eccentricity
0.0001520
Mean motion
15.27597328 rev/d
Perigee alt
482.0 km
Apogee alt
484.0 km
Semi-major
6,861.1 km
B*
7.9051e-4
RAAN
334.2888°
Arg perigee
277.6550°
Mean anomaly
82.4129°
Rev number
6,061

§ Raw data

STARLINK-337691 63773U 25089X   26144.94961804  .00021566  00000+0  79051-3 0  99922 63773  43.0018 334.2888 0001520 277.6550  82.4129 15.27597328 60618

JSON: /api/v1/satellites/63773 · /tle

For live sub-satellite position, see the globe view (requires WebGL).

§ Visibility from observer

Set your observer location to see the next 7 days of passes ≥ 10°. The values pass through the URL so the page stays shareable.

No JS? Fill the form by hand. The geolocation button needs JavaScript.